FW8346 Weather Reports


Display with metric or nautical units.
time (UTC)temp
F
wind
direction
speed
MPH
gust
MPH
rain 1hr
in
rain 24hr
in
rain mn
in
humidity
%
barometer
mb
20260906200813 81 115 1.0 4.0 0.00 0.00 0.00 64 1018.3
20260906200307 81 89 1.0 6.0 0.00 0.00 0.00 65 1018.2
20260906195801 81 136 2.0 6.0 0.00 0.00 0.00 64 1018.1
20260906195255 80 120 2.0 7.0 0.00 0.00 0.00 67 1018.3
20260906194748 80 123 3.0 8.0 0.00 0.00 0.00 67 1018.3
20260906194242 81 98 3.0 8.0 0.00 0.00 0.00 65 1018.3
20260906193737 81 100 3.0 8.0 0.00 0.00 0.00 66 1018.3
20260906193502 81 108 4.0 8.0 0.00 0.00 0.00 66 1018.4
20260906192724 81 128 3.0 9.0 0.00 0.00 0.00 64 1018.3
20260906192222 82 118 2.0 9.0 0.00 0.00 0.00 62 1018.4
20260906191953 82 243 2.0 6.0 0.00 0.00 0.00 66 1018.4
20260906191222 81 256 2.0 6.0 0.00 0.00 0.00 66 1018.3
20260906190722 82 140 2.0 7.0 0.00 0.00 0.00 62 1018.4
20260906190219 81 73 2.0 8.0 0.00 0.00 0.00 66 1018.4
20260906185720 81 122 2.0 8.0 0.00 0.00 0.00 66 1018.4
20260906185453 81 214 2.0 6.0 0.00 0.00 0.00 65 1018.4
20260906184721 81 221 2.0 9.0 0.00 0.00 0.00 65 1018.5
20260906184220 81 150 3.0 11.0 0.00 0.00 0.00 63 1018.4
20260906183951 81 98 3.0 11.0 0.00 0.00 0.00 63 1018.5
20260906183451 81 193 3.0 10.0 0.00 0.00 0.00 65 1018.4
20260906182721 81 104 3.0 10.0 0.00 0.00 0.00 65 1018.5
20260906182224 81 120 3.0 8.0 0.00 0.00 0.00 65 1018.6
20260906181719 81 124 2.0 7.0 0.00 0.00 0.00 63 1018.6
20260906181451 81 136 2.0 7.0 0.00 0.00 0.00 63 1018.7
20260906180718 80 138 3.0 10.0 0.00 0.00 0.00 66 1018.7
20260906180220 80 100 5.0 10.0 0.00 0.00 0.00 64 1018.7
20260906175718 80 70 5.0 10.0 0.00 0.00 0.00 66 1018.6
20260906175445 80 95 4.0 10.0 0.00 0.00 0.00 64 1018.7
20260906174706 80 122 2.0 8.0 0.00 0.00 0.00 67 1018.8
20260906174200 80 32 2.0 6.0 0.00 0.00 0.00 66 1018.8
20260906173654 80 100 2.0 6.0 0.00 0.00 0.00 64 1018.7
20260906173148 81 145 2.0 6.0 0.00 0.00 0.00 66 1019.0
20260906172642 80 120 2.0 7.0 0.00 0.00 0.00 66 1019.0
20260906172136 79 137 3.0 7.0 0.00 0.00 0.00 69 1019.0
20260906171902 79 77 4.0 10.0 0.00 0.00 0.00 69 1019.1
20260906171124 79 117 4.0 10.0 0.00 0.00 0.00 68 1019.2
20260906170618 79 278 4.0 7.0 0.00 0.00 0.00 71 1019.3
20260906170112 79 153 4.0 9.0 0.00 0.00 0.00 72 1019.3
20260906165606 79 101 3.0 9.0 0.00 0.00 0.00 72 1019.3
20260906165105 79 50 2.0 7.0 0.00 0.00 0.00 74 1019.2
20260906164835 79 55 1.0 5.0 0.00 0.00 0.00 73 1019.2
20260906164100 79 79 1.0 4.0 0.00 0.00 0.00 76 1019.1
20260906163600 78 129 2.0 8.0 0.00 0.00 0.00 75 1019.1
20260906163100 78 122 2.0 8.0 0.00 0.00 0.00 79 1019.2
20260906162601 78 94 2.0 5.0 0.00 0.00 0.00 77 1019.2
20260906162101 77 109 3.0 9.0 0.00 0.00 0.00 78 1019.4
20260906161558 77 116 3.0 9.0 0.00 0.00 0.00 80 1019.5
20260906161058 77 115 2.0 6.0 0.00 0.00 0.00 79 1019.5
20260906160558 76 134 2.0 5.0 0.00 0.00 0.00 80 1019.5
20260906160100 76 140 1.0 5.0 0.00 0.00 0.00 80 1019.6
20260906155557 76 79 2.0 6.0 0.00 0.00 0.00 81 1019.5
20260906155057 76 166 3.0 10.0 0.00 0.00 0.00 82 1019.5
20260906154557 76 103 3.0 10.0 0.00 0.00 0.00 81 1019.3
20260906154055 76 140 3.0 6.0 0.00 0.00 0.00 84 1019.3
20260906153824 75 84 2.0 6.0 0.00 0.00 0.00 85 1019.3
20260906153055 75 120 3.0 9.0 0.00 0.00 0.00 86 1019.3
20260906152555 74 129 3.0 9.0 0.00 0.00 0.00 86 1019.5
20260906152053 74 101 3.0 7.0 0.00 0.00 0.00 86 1019.6
20260906151554 74 122 3.0 6.0 0.00 0.00 0.00 86 1019.5
20260906151054 73 89 3.0 5.0 0.00 0.00 0.00 89 1019.6
20260906150553 73 94 2.0 5.0 0.00 0.00 0.00 88 1019.7
20260906150055 72 114 2.0 8.0 0.00 0.00 0.00 88 1019.7
20260906145553 72 170 2.0 8.0 0.00 0.00 0.00 88 1019.7
20260906145054 72 120 2.0 7.0 0.00 0.00 0.00 88 1019.5
20260906144554 71 112 2.0 5.0 0.00 0.00 0.00 91 1019.4
20260906144054 71 130 2.0 4.0 0.00 0.00 0.00 90 1019.8
20260906143551 71 97 1.0 5.0 0.00 0.00 0.00 90 1019.8
20260906143050 71 198 1.0 5.0 0.00 0.00 0.00 91 1019.6
20260906142551 71 174 1.0 3.0 0.00 0.00 0.00 92 1019.5
20260906142050 70 82 2.0 4.0 0.00 0.00 0.00 92 1019.5
20260906141551 69 212 2.0 4.0 0.00 0.00 0.00 93 1019.4
20260906141051 69 122 1.0 4.0 0.00 0.00 0.00 93 1019.5
20260906140550 69 112 1.0 3.0 0.00 0.00 0.00 92 1019.4
20260906140050 69 144 1.0 4.0 0.00 0.00 0.00 92 1019.5
20260906135551 69 136 1.0 4.0 0.00 0.00 0.00 91 1019.8
20260906135050 70 82 0.0 4.0 0.00 0.00 0.00 93 1019.7
20260906134549 69 139 0.0 4.0 0.00 0.00 0.00 95 1019.7
20260906134051 68 96 0.0 3.0 0.00 0.00 0.00 96 1019.6
20260906133549 67 113 1.0 3.0 0.00 0.00 0.00 97 1019.7
20260906133049 66 89 1.0 3.0 0.00 0.00 0.00 97 1019.7
20260906132820 66 104 1.0 4.0 0.00 0.00 0.00 97 1019.6
20260906132050 65 130 1.0 4.0 0.00 0.00 0.00 97 1019.5
20260906131821 65 68 1.0 5.0 0.00 0.00 0.00 97 1019.7
20260906131712 65 98 2.0 5.0 0.00 0.00 0.00 97 1019.5
20260906130545 65 122 1.0 5.0 0.00 0.00 0.00 97 1019.2
20260906130039 64 120 0.0 4.0 0.00 0.00 0.00 97 1019.5
20260906125533 64 92 1.0 4.0 0.00 0.00 0.00 97 1019.6
20260906125027 64 87 0.0 3.0 0.00 0.00 0.00 97 1019.6
20260906124522 64 97 0.0 0.0 0.00 0.00 0.00 97 1019.6
20260906124015 64 78 0.0 1.0 0.00 0.00 0.00 97 1019.5
20260906123510 63 79 0.0 1.0 0.00 0.00 0.00 97 1019.4
20260906123003 63 82 0.0 1.0 0.00 0.00 0.00 97 1019.4
20260906122733 63 83 0.0 1.0 0.00 0.00 0.00 97 1019.4
20260906122454 63 113 0.0 2.0 0.00 0.00 0.00 97 1019.2
20260906121445 63 120 0.0 2.0 0.00 0.00 0.00 97 1019.0
20260906120939 63 114 0.0 1.0 0.00 0.00 0.00 97 1019.2
20260906120433 63 103 0.0 0.0 0.00 0.00 0.00 97 1019.3
20260906120158 62 103 0.0 0.0 0.00 0.00 0.00 97 1019.3
20260906115421 62 84 0.0 0.0 0.00 0.00 0.00 97 1019.4
20260906115146 62 86 0.0 0.0 0.00 0.00 0.00 97 1019.4
20260906114641 62 101 0.0 1.0 0.00 0.00 0.00 97 1019.3
20260906114135 62 114 0.0 1.0 0.00 0.00 0.00 97 1019.2
20260906113357 62 82 0.0 1.0 0.00 0.00 0.00 97 1019.2
20260906112851 62 65 0.0 1.0 0.00 0.00 0.00 97 1019.2
20260906112345 62 100 0.0 1.0 0.00 0.00 0.00 97 1019.1
20260906111839 62 87 0.0 0.0 0.00 0.00 0.00 97 1019.0
20260906111604 62 97 0.0 0.0 0.00 0.00 0.00 97 1019.0
20260906110827 62 107 0.0 1.0 0.00 0.00 0.00 97 1019.1
20260906110321 62 123 0.0 0.0 0.00 0.00 0.00 97 1019.0
20260906105815 62 129 0.0 1.0 0.00 0.00 0.00 97 1019.0
20260906105309 62 130 0.0 1.0 0.00 0.00 0.00 97 1019.1
20260906104803 62 111 0.0 1.0 0.00 0.00 0.00 97 1019.1
20260906104258 62 82 0.0 1.0 0.00 0.00 0.00 97 1019.0
20260906103751 62 119 0.0 1.0 0.00 0.00 0.00 97 1019.0
20260906103245 62 79 0.0 1.0 0.00 0.00 0.00 97 1019.0
20260906102738 62 70 0.0 1.0 0.00 0.00 0.00 97 1018.8
20260906102233 63 79 0.0 2.0 0.00 0.00 0.00 97 1018.7
20260906101727 63 92 1.0 3.0 0.00 0.00 0.00 97 1018.5
20260906101221 63 79 0.0 3.0 0.00 0.00 0.00 97 1018.5
20260906100715 63 68 0.0 3.0 0.00 0.00 0.00 97 1018.5
20260906100209 63 98 1.0 4.0 0.00 0.00 0.00 97 1018.4
20260906095703 63 95 1.0 4.0 0.00 0.00 0.00 97 1018.2
20260906095429 63 84 1.0 3.0 0.00 0.00 0.00 97 1018.2
20260906094651 63 79 1.0 3.0 0.00 0.00 0.00 97 1018.2
20260906094145 63 99 1.0 3.0 0.00 0.00 0.00 97 1018.1
20260906093639 63 79 1.0 2.0 0.00 0.00 0.00 97 1018.1
20260906093133 63 69 1.0 3.0 0.00 0.00 0.00 97 1017.9
20260906092628 63 81 1.0 3.0 0.00 0.00 0.00 97 1017.9
20260906092121 63 77 1.0 3.0 0.00 0.00 0.00 97 1017.9
20260906091615 63 90 1.0 3.0 0.00 0.00 0.00 97 1018.0
20260906091109 63 82 0.0 2.0 0.00 0.00 0.00 97 1018.0
20260906090603 63 111 0.0 0.0 0.00 0.00 0.00 97 1018.1
20260906090057 63 101 0.0 1.0 0.00 0.00 0.00 97 1018.2
20260906085551 63 125 0.0 1.0 0.00 0.00 0.00 97 1018.3
20260906085045 63 87 0.0 1.0 0.00 0.00 0.00 97 1018.2
20260906084539 63 130 0.0 1.0 0.00 0.00 0.00 97 1018.1
20260906084032 63 129 0.0 3.0 0.00 0.00 0.00 97 1018.0
20260906083527 64 120 0.0 3.0 0.00 0.00 0.00 97 1018.0
20260906083021 64 97 1.0 3.0 0.00 0.00 0.00 97 1018.0
20260906082515 64 98 1.0 3.0 0.00 0.00 0.00 97 1018.1
20260906082009 64 87 1.0 3.0 0.00 0.00 0.00 97 1018.2
20260906081503 64 95 1.0 4.0 0.00 0.00 0.00 97 1018.2
20260906080958 64 71 2.0 4.0 0.00 0.00 0.00 97 1018.2
20260906080451 64 52 1.0 4.0 0.00 0.00 0.00 97 1018.4
20260906075946 64 62 1.0 3.0 0.00 0.00 0.00 97 1018.5
20260906075439 64 33 1.0 3.0 0.00 0.00 0.00 97 1018.5
20260906074936 64 53 2.0 5.0 0.00 0.00 0.00 97 1018.4
20260906074929 64 22 2.0 5.0 0.00 0.00 0.00 97 1018.4
20260906074152 64 20 1.0 4.0 0.00 0.00 0.00 97 1018.4
20260906073415 64 87 1.0 3.0 0.00 0.00 0.00 97 1018.3
20260906072909 65 52 1.0 3.0 0.00 0.00 0.00 97 1018.3
20260906072403 64 58 1.0 3.0 0.00 0.00 0.00 97 1018.4
20260906071857 65 49 0.0 3.0 0.00 0.00 0.00 97 1018.4
20260906071351 64 56 0.0 3.0 0.00 0.00 0.00 97 1018.5
20260906070845 64 89 0.0 1.0 0.00 0.00 0.00 97 1018.5
20260906070339 64 74 0.0 0.0 0.00 0.00 0.00 96 1018.4
20260906065833 64 75 0.0 1.0 0.00 0.00 0.00 96 1018.4
20260906065327 65 77 0.0 2.0 0.00 0.00 0.00 97 1018.4
20260906064821 65 64 0.0 2.0 0.00 0.00 0.00 97 1018.5
20260906064547 64 79 0.0 1.0 0.00 0.00 0.00 97 1018.5
20260906063809 64 81 0.0 1.0 0.00 0.00 0.00 96 1018.5
20260906063303 64 82 0.0 0.0 0.00 0.00 0.00 96 1018.5
20260906062757 65 82 0.0 1.0 0.00 0.00 0.00 96 1018.5
20260906062519 65 71 1.0 3.0 0.00 0.00 0.00 96 1018.6
20260906062354 65 74 0.0 1.0 0.00 0.00 0.00 96 1018.6
20260906061239 65 73 1.0 3.0 0.00 0.00 0.00 96 1018.6
20260906060733 65 71 0.0 1.0 0.00 0.00 0.00 96 1018.7
20260906060227 65 83 0.0 1.0 0.00 0.00 0.00 96 1018.7
20260906055722 65 92 1.0 3.0 0.00 0.00 0.00 96 1018.6
20260906055220 65 72 1.0 3.0 0.00 0.00 0.00 96 1018.5
20260906054717 65 81 0.0 2.0 0.00 0.00 0.00 96 1018.6
20260906054447 65 84 1.0 3.0 0.00 0.00 0.00 96 1018.5
20260906053946 65 82 2.0 5.0 0.00 0.00 0.00 95 1018.4
20260906053445 65 79 1.0 5.0 0.00 0.00 0.00 96 1018.4
20260906052714 65 70 2.0 6.0 0.00 0.00 0.00 95 1018.5
20260906052214 65 62 3.0 6.0 0.00 0.00 0.00 96 1018.5
20260906051712 66 63 3.0 5.0 0.00 0.00 0.00 95 1018.5
20260906051212 66 61 4.0 6.0 0.00 0.00 0.00 95 1018.5
20260906050943 66 70 3.0 6.0 0.00 0.00 0.00 95 1018.5
20260906050212 66 84 3.0 6.0 0.00 0.00 0.00 95 1018.5
20260906045711 66 74 3.0 6.0 0.00 0.00 0.00 95 1018.6
20260906045439 66 77 3.0 6.0 0.00 0.00 0.00 95 1018.7
20260906044939 66 41 3.0 5.0 0.00 0.00 0.00 95 1018.7
20260906044210 66 58 3.0 6.0 0.00 0.00 0.00 95 1018.7
20260906043938 66 45 3.0 6.0 0.00 0.00 0.00 95 1018.7
20260906043205 66 61 3.0 5.0 0.00 0.00 0.00 95 1018.7
20260906042702 66 65 3.0 5.0 0.00 0.00 0.00 95 1018.6
20260906042204 66 61 2.0 4.0 0.00 0.00 0.00 95 1018.6
20260906041704 67 81 2.0 4.0 0.00 0.00 0.00 94 1018.6
20260906041204 67 66 2.0 5.0 0.00 0.00 0.00 94 1018.4
20260906040934 67 73 2.0 5.0 0.00 0.00 0.00 94 1018.6
20260906040159 67 46 3.0 4.0 0.00 0.00 0.00 94 1018.7
20260906035929 67 69 3.0 4.0 0.00 0.00 0.00 94 1018.5
20260906035156 67 75 3.0 5.0 0.00 0.00 0.00 94 1018.5
20260906034925 67 68 2.0 5.0 0.00 0.00 0.00 94 1018.5
20260906034426 67 57 1.0 4.0 0.00 0.00 0.00 93 1018.5
20260906033654 67 69 2.0 5.0 0.00 0.00 0.00 93 1018.5
20260906033425 67 63 3.0 5.0 0.00 0.00 0.00 93 1018.5
20260906032654 68 79 3.0 4.0 0.00 0.00 0.00 93 1018.5
20260906032156 68 83 3.0 4.0 0.00 0.00 0.00 93 1018.5
20260906031650 68 76 3.0 4.0 0.00 0.00 0.00 93 1018.5
20260906031151 68 69 2.0 4.0 0.00 0.00 0.00 93 1018.5
20260906030650 68 77 2.0 4.0 0.00 0.00 0.00 93 1018.4
20260906030150 68 86 0.0 3.0 0.00 0.00 0.00 93 1018.4
20260906025651 68 84 1.0 3.0 0.00 0.00 0.00 92 1018.4
20260906025151 68 75 2.0 4.0 0.00 0.00 0.00 92 1018.4
20260906024658 68 77 0.0 2.0 0.00 0.00 0.00 93 1018.5
20260906024652 68 72 1.0 4.0 0.00 0.00 0.00 92 1018.4
20260906023652 68 82 0.0 1.0 0.00 0.00 0.00 92 1018.5
20260906023419 68 93 0.0 1.0 0.00 0.00 0.00 92 1018.5
20260906022647 69 64 0.0 1.0 0.00 0.00 0.00 92 1018.5
20260906022146 69 73 0.0 1.0 0.00 0.00 0.00 91 1018.5
20260906021648 69 66 0.0 1.0 0.00 0.00 0.00 91 1018.4
20260906021147 69 74 0.0 1.0 0.00 0.00 0.00 91 1018.2
20260906020648 69 64 0.0 2.0 0.00 0.00 0.00 90 1018.2
20260906020148 70 64 0.0 2.0 0.00 0.00 0.00 90 1018.2
20260906015653 69 68 0.0 1.0 0.00 0.00 0.00 91 1018.1
20260906015648 70 63 0.0 2.0 0.00 0.00 0.00 90 1018.2
20260906014645 69 71 0.0 1.0 0.00 0.00 0.00 89 1018.0
20260906014143 70 72 0.0 1.0 0.00 0.00 0.00 89 1017.8
20260906013639 70 72 0.0 1.0 0.00 0.00 0.00 89 1017.6
20260906013138 70 89 0.0 3.0 0.00 0.00 0.00 88 1017.6
20260906012640 71 86 1.0 3.0 0.00 0.00 0.00 88 1017.5
20260906012138 71 65 1.0 3.0 0.00 0.00 0.00 87 1017.4
20260906011636 71 74 0.0 2.0 0.00 0.00 0.00 87 1017.3
20260906011136 71 60 1.0 4.0 0.00 0.00 0.00 87 1017.3
20260906010636 71 48 3.0 6.0 0.00 0.00 0.00 86 1017.0
20260906010137 72 74 4.0 6.0 0.00 0.00 0.00 86 1016.6
20260906005637 72 70 5.0 7.0 0.00 0.00 0.00 85 1016.5
20260906005136 72 70 5.0 7.0 0.00 0.00 0.00 85 1016.3
20260906004909 73 80 6.0 8.0 0.00 0.00 0.00 85 1016.2
20260906004138 73 72 5.0 8.0 0.00 0.00 0.00 84 1016.2
20260906003638 73 71 5.0 8.0 0.00 0.00 0.00 84 1016.1
20260906003131 74 79 5.0 9.0 0.00 0.00 0.00 83 1016.1
20260906002626 74 79 6.0 9.0 0.00 0.00 0.00 83 1015.8
20260906002122 74 80 6.0 10.0 0.00 0.00 0.00 83 1015.8
20260906001854 74 77 5.0 10.0 0.00 0.00 0.00 82 1015.8
20260906001121 75 75 6.0 10.0 0.00 0.00 0.00 83 1015.8
20260906000619 75 71 5.0 10.0 0.00 0.00 0.00 81 1015.7
20260906000120 75 72 4.0 10.0 0.00 0.00 0.00 80 1015.6
20260905235620 76 122 3.0 6.0 0.00 0.00 0.00 80 1015.6
20260905235347 76 68 3.0 7.0 0.00 0.00 0.00 80 1015.6
20260905234617 76 106 4.0 7.0 0.00 0.00 0.00 79 1015.6
20260905234117 76 88 3.0 7.0 0.00 0.00 0.00 79 1015.6
20260905233616 76 91 4.0 9.0 0.00 0.00 0.00 79 1015.7
20260905233116 76 96 5.0 9.0 0.00 0.00 0.00 79 1015.7
20260905232616 76 96 5.0 10.0 0.00 0.00 0.00 78 1015.7
20260905232114 76 64 5.0 10.0 0.00 0.00 0.00 78 1015.7
20260905231613 76 86 5.0 11.0 0.00 0.00 0.00 79 1015.7
20260905231346 76 127 5.0 11.0 0.00 0.00 0.00 79 1015.7
20260905230612 76 82 5.0 9.0 0.00 0.00 0.00 79 1016.0
20260905230113 76 121 6.0 10.0 0.00 0.00 0.00 78 1016.1
20260905225607 76 91 7.0 10.0 0.00 0.00 0.00 79 1016.1
20260905225331 76 79 7.0 11.0 0.00 0.00 0.00 79 1016.1
20260905224555 76 85 6.0 11.0 0.00 0.00 0.00 79 1016.1
20260905224048 76 72 5.0 9.0 0.00 0.00 0.00 79 1016.2
20260905223543 76 86 5.0 9.0 0.00 0.00 0.00 80 1016.3
20260905223037 76 85 7.0 10.0 0.00 0.00 0.00 80 1016.3
20260905222531 76 90 6.0 10.0 0.00 0.00 0.00 80 1016.4
20260905222024 76 112 6.0 11.0 0.00 0.00 0.00 80 1016.4
20260905221519 76 72 5.0 11.0 0.00 0.00 0.00 82 1016.5
20260905221013 76 86 5.0 8.0 0.00 0.00 0.00 82 1016.7
20260905220507 75 53 5.0 9.0 0.00 0.00 0.00 81 1016.9
20260905220001 75 79 4.0 9.0 0.00 0.00 0.00 82 1017.0
20260905215455 75 58 2.0 8.0 0.00 0.00 0.00 82 1016.9
20260905215220 75 65 3.0 7.0 0.00 0.00 0.00 83 1016.9
20260905214443 75 168 4.0 11.0 0.00 0.00 0.00 82 1016.9
20260905213936 75 48 4.0 11.0 0.00 0.00 0.00 84 1017.0
20260905213701 74 72 3.0 7.0 0.00 0.00 0.00 84 1017.1
20260905212924 74 56 4.0 8.0 0.00 0.00 0.00 84 1017.1
20260905212419 74 62 4.0 8.0 0.00 0.00 0.00 83 1017.2
20260905211913 74 72 4.0 8.0 0.00 0.00 0.00 84 1017.5
20260905211407 74 66 3.0 8.0 0.00 0.00 0.00 84 1017.5
20260905210901 73 79 3.0 8.0 0.00 0.00 0.00 84 1017.5
20260905210355 73 56 5.0 10.0 0.00 0.00 0.00 84 1017.6
20260905205848 73 77 4.0 10.0 0.00 0.00 0.00 86 1017.6
20260905205343 73 60 3.0 8.0 0.00 0.00 0.00 85 1017.6
20260905204836 73 79 4.0 7.0 0.00 0.00 0.00 85 1017.6
20260905204603 73 77 4.0 7.0 0.00 0.00 0.00 85 1017.7
20260905203824 73 68 3.0 6.0 0.00 0.00 0.00 86 1017.9
20260905203319 73 87 3.0 6.0 0.00 0.00 0.00 86 1018.0
20260905202813 73 108 3.0 6.0 0.00 0.00 0.00 85 1018.0
20260905202307 73 77 2.0 5.0 0.00 0.00 0.00 84 1018.1
20260905201801 73 133 2.0 5.0 0.00 0.00 0.00 84 1018.1
20260905201527 74 87 0.0 3.0 0.00 0.00 0.00 84 1018.2